Flag for Uzbekistan Weather past 2 weeks in Tashkent, Uzbekistan

Now
88 °F

Sunny.


Feels Like: 84 °F
Forecast: 63 / 91 °F
Wind: 3 mph from South

Location: Tashkent

Current Time: Sep 16, 2014 at 3:05:06 PM

Latest Report: Sep 16, 2014 at 2:00 PM


Visibility: 10 mi

Pressure: 29.86 "Hg

Humidity: 10%

Dew point: 25 °F

Location of TashkentLocation

Historic Weather in Tashkent — Graph

°F

Tashkent temperature yesterday

Maximum temperature yesterday: 82 °F (at 3:30 PM)
Minimum temperature yesterday: 61 °F (at 12:30 AM)
Average temperature yesterday: 72 °F

Past Weeks' High & Low Weather Summary

 TemperatureHumidityPressure
High97 °F (Sep 1, 2:30 PM)59% (Sep 12, 5:00 AM)30.01 "Hg (Sep 12, 5:00 AM)
Low55 °F (Sep 11, 6:00 AM)7% (Sep 1, 4:30 PM)29.71 "Hg (Sep 5, 2:30 PM)
Average73 °F27%29.89 "Hg
* Reported Sep 1 1:00 PM — Sep 16 1:30 PM, Tashkent, Weather by CustomWeather, © 2014

Note: Actual official high and low records may vary slightly from our data, if they occured in-between our weather recording intervals... More about our weather records

Advertising

Tashkent weather history for previous 24 hours

 ConditionsComfort  
Time TempWeatherWind HumidityBarometerVisibility
1:30 PM
Sep 16
88 °FSunny.1 mph11%29.86 "Hg10 mi
1:00 PM86 °FSunny.3 mph11%29.89 "Hg10 mi
12:30 PM86 °FSunny.3 mph11%29.89 "Hg10 mi
12:00 PM86 °FSunny.3 mph11%29.89 "Hg10 mi
11:30 AM86 °FSunny.3 mph13%29.89 "Hg10 mi
11:00 AM84 °FPassing clouds.6 mph14%29.92 "HgN/A
10:30 AM81 °FPassing clouds.6 mph18%29.92 "HgN/A
10:00 AM79 °FPassing clouds.6 mph21%29.92 "HgN/A
9:30 AM77 °FSunny.3 mph22%29.92 "Hg10 mi
9:00 AM75 °FSunny.6 mph24%29.92 "Hg10 mi
8:30 AM72 °FPassing clouds.6 mph27%29.92 "HgN/A
8:00 AM70 °FSunny.6 mph29%29.92 "Hg10 mi
7:30 AM68 °FSunny.8 mph30%29.92 "Hg10 mi
7:00 AM64 °FSunny.6 mph37%29.92 "Hg10 mi
6:30 AM63 °FSunny.6 mph37%29.89 "Hg10 mi
6:00 AM63 °FClear.8 mph37%29.89 "Hg10 mi
5:30 AM63 °FClear.10 mph39%29.89 "Hg10 mi
5:00 AM61 °FClear.8 mph42%29.89 "Hg10 mi
4:30 AM57 °FClear.8 mph48%29.89 "Hg10 mi
4:00 AM61 °FClear.8 mph42%29.89 "Hg10 mi
3:30 AM61 °FClear.8 mph42%29.89 "Hg10 mi
3:00 AM61 °FClear.8 mph42%29.89 "Hg10 mi
2:30 AM61 °FClear.6 mph45%29.89 "Hg10 mi
2:00 AM64 °FClear.8 mph40%29.89 "Hg10 mi
1:30 AM61 °FClear.6 mph45%29.89 "Hg10 mi
1:00 AM61 °FClear.6 mph48%29.89 "Hg10 mi
12:30 AM63 °FClear.6 mph45%29.89 "Hg10 mi
12:00 AM64 °FClear.3 mph43%29.89 "Hg10 mi
11:30 PM
Sep 15
64 °FClear.3 mph40%29.92 "Hg10 mi
11:00 PM66 °FPassing clouds.3 mph37%29.92 "HgN/A
10:30 PM68 °FClear.No wind35%29.92 "Hg10 mi
10:00 PM68 °FClear.No wind35%29.92 "Hg10 mi
9:30 PM72 °FClear.3 mph29%29.92 "Hg10 mi
9:00 PM73 °FClear.6 mph29%29.92 "Hg10 mi
8:30 PM75 °FClear.6 mph25%29.92 "Hg10 mi
8:00 PM75 °FClear.8 mph25%29.92 "Hg10 mi
7:00 PM77 °FPassing clouds.8 mph24%29.89 "HgN/A
6:30 PM81 °FBroken clouds.8 mph21%29.89 "HgN/A
6:00 PM82 °FBroken clouds.3 mph16%29.89 "HgN/A
5:30 PM82 °FPartly sunny.3 mph15%29.89 "Hg4 mi
5:00 PM82 °FPartly sunny.6 mph15%29.89 "Hg4 mi
4:30 PM82 °FPartly sunny.6 mph15%29.89 "Hg3 mi
4:00 PM82 °FPartly sunny.8 mph17%29.89 "Hg3 mi
3:30 PM82 °FPartly sunny.3 mph21%29.89 "Hg3 mi
3:00 PM81 °FMostly cloudy.3 mph23%29.89 "Hg3 mi
Weather by CustomWeather, © 2014

See weather overviewHow to use our weather pages